• In Czech Republic
  • List of Countries
  • For 7 days
  • Water Temperature
  • Satellite Maps
  • Weather Map
  • Weather Widgets
  • user-avatar
    Login

    Hourly Weather Kaletnik

    Today, 21 September, Friday

    Time Temperature Precipitation Wind Pressure Humidity
    00:00 +19°C° 0 mm 3 mps 747 mmHg 70%
    01:00 +19°C° 0 mm 2 mps 747 mmHg 72%
    02:00 +18°C° 0 mm 2 mps 747 mmHg 74%
    03:00 +18°C° 0 mm 2 mps 747 mmHg 74%
    04:00 +17°C° 0 mm 2 mps 747 mmHg 75%
    05:00 +17°C° 0 mm 2 mps 747 mmHg 76%
    06:00 +18°C° 0 mm 3 mps 747 mmHg 74%
    07:00 +19°C° 0 mm 3 mps 747 mmHg 72%
    08:00 +19°C° 0 mm 3 mps 747 mmHg 70%
    09:00 +21°C° 0 mm 4 mps 746 mmHg 64%
    10:00 +23°C° 0 mm 4 mps 746 mmHg 58%
    11:00 +26°C° 0 mm 5 mps 746 mmHg 53%
    12:00 +26°C° 0 mm 5 mps 746 mmHg 49%
    13:00 +27°C° 0 mm 5 mps 745 mmHg 46%
    14:00 +28°C° 0 mm 5 mps 745 mmHg 43%
    15:00 +27°C° 0 mm 5 mps 744 mmHg 46%
    16:00 +26°C° 0 mm 5 mps 743 mmHg 49%
    17:00 +25°C° 0 mm 4 mps 743 mmHg 52%
    18:00 +23°C° 0 mm 5 mps 742 mmHg 53%
    19:00 +22°C° 0 mm 5 mps 742 mmHg 54%
    20:00 +21°C° 0 mm 5 mps 741 mmHg 56%
    21:00 +20°C° 0 mm 6 mps 741 mmHg 56%
    22:00 +20°C° 0 mm 6 mps 741 mmHg 56%
    23:00 +20°C° 0 mm 6 mps 740 mmHg 57%

    Tomorrow, 22 September, Saturday

    Time Temperature Precipitation Wind Pressure Humidity
    00:00 +20°C° 0 mm 6 mps 740 mmHg 60%
    01:00 +19°C° 0 mm 6 mps 740 mmHg 62%
    02:00 +19°C° 0 mm 5 mps 740 mmHg 65%
    03:00 +16°C° 0.7 mm 5 mps 741 mmHg 72%
    04:00 +14°C° 0.7 mm 5 mps 741 mmHg 79%
    05:00 +13°C° 0.7 mm 5 mps 741 mmHg 86%
    06:00 +12°C° 0.9 mm 5 mps 742 mmHg 86%
    07:00 +12°C° 0.9 mm 5 mps 743 mmHg 85%
    08:00 +12°C° 0.9 mm 5 mps 743 mmHg 84%
    09:00 +12°C° 0 mm 5 mps 744 mmHg 79%
    10:00 +12°C° 0 mm 5 mps 744 mmHg 73%
    11:00 +13°C° 0 mm 5 mps 744 mmHg 68%
    12:00 +13°C° 0 mm 6 mps 744 mmHg 64%
    13:00 +14°C° 0 mm 6 mps 744 mmHg 59%
    14:00 +15°C° 0 mm 6 mps 744 mmHg 55%
    15:00 +14°C° 0.2 mm 5 mps 744 mmHg 58%
    16:00 +14°C° 0.2 mm 5 mps 744 mmHg 61%
    17:00 +14°C° 0.2 mm 4 mps 744 mmHg 64%
    18:00 +12°C° 0.1 mm 4 mps 744 mmHg 70%
    19:00 +11°C° 0.1 mm 3 mps 744 mmHg 76%
    20:00 +9°C° 0.1 mm 3 mps 744 mmHg 81%
    21:00 +9°C° 0 mm 3 mps 744 mmHg 82%
    22:00 +9°C° 0 mm 3 mps 744 mmHg 83%
    23:00 +9°C° 0 mm 3 mps 744 mmHg 83%

    Day after tomorrow, 23 September, Sunday

    Time Temperature Precipitation Wind Pressure Humidity
    00:00 +8°C° 0 mm 3 mps 744 mmHg 84%
    01:00 +7°C° 0 mm 4 mps 744 mmHg 84%
    02:00 +7°C° 0 mm 4 mps 744 mmHg 85%
    03:00 +7°C° 0 mm 4 mps 744 mmHg 85%
    04:00 +7°C° 0 mm 4 mps 744 mmHg 85%
    05:00 +7°C° 0 mm 4 mps 744 mmHg 86%
    06:00 +7°C° 0 mm 5 mps 744 mmHg 83%
    07:00 +8°C° 0 mm 6 mps 744 mmHg 80%
    08:00 +8°C° 0 mm 7 mps 744 mmHg 77%
    09:00 +9°C° 0 mm 7 mps 744 mmHg 74%
    10:00 +10°C° 0 mm 7 mps 744 mmHg 70%
    11:00 +11°C° 0 mm 7 mps 744 mmHg 66%
    12:00 +12°C° 0.1 mm 7 mps 744 mmHg 65%
    13:00 +12°C° 0.1 mm 7 mps 745 mmHg 64%
    14:00 +12°C° 0.1 mm 7 mps 745 mmHg 63%
    15:00 +13°C° 0.1 mm 6 mps 745 mmHg 64%
    16:00 +13°C° 0.1 mm 6 mps 744 mmHg 65%
    17:00 +13°C° 0.1 mm 5 mps 744 mmHg 66%
    18:00 +12°C° 0.1 mm 4 mps 744 mmHg 71%
    19:00 +10°C° 0.1 mm 3 mps 744 mmHg 76%
    20:00 +9°C° 0.1 mm 2 mps 744 mmHg 81%
    21:00 +9°C° 0 mm 2 mps 744 mmHg 81%
    22:00 +9°C° 0 mm 2 mps 744 mmHg 81%
    23:00 +8°C° 0 mm 3 mps 743 mmHg 81%

    24 September, Monday

    Time Temperature Precipitation Wind Pressure Humidity
    00:00 +8°C° 0 mm 3 mps 743 mmHg 79%
    01:00 +8°C° 0 mm 2 mps 742 mmHg 76%
    02:00 +8°C° 0 mm 2 mps 741 mmHg 74%
    03:00 +8°C° 0.4 mm 3 mps 740 mmHg 77%
    04:00 +7°C° 0.4 mm 4 mps 739 mmHg 80%
    05:00 +7°C° 0.4 mm 4 mps 737 mmHg 83%
    06:00 +7°C° 1.8 mm 5 mps 736 mmHg 86%
    07:00 +7°C° 1.8 mm 6 mps 734 mmHg 89%
    08:00 +6°C° 1.8 mm 7 mps 732 mmHg 92%
    09:00 +8°C° 3.2 mm 7 mps 730 mmHg 92%
    10:00 +8°C° 3.2 mm 7 mps 729 mmHg 93%
    11:00 +9°C° 3.2 mm 7 mps 727 mmHg 93%
    12:00 +10°C° 2.3 mm 7 mps 726 mmHg 91%
    13:00 +11°C° 2.3 mm 6 mps 725 mmHg 89%
    14:00 +13°C° 2.3 mm 6 mps 724 mmHg 87%
    15:00 +11°C° 0.8 mm 7 mps 725 mmHg 88%
    16:00 +10°C° 0.8 mm 8 mps 725 mmHg 89%
    17:00 +7°C° 0.8 mm 9 mps 726 mmHg 90%
    18:00 +7°C° 1.3 mm 10 mps 727 mmHg 89%
    19:00 +6°C° 1.3 mm 11 mps 729 mmHg 88%
    20:00 +4°C° 1.3 mm 12 mps 731 mmHg 86%
    21:00 +4°C° 0.7 mm 12 mps 732 mmHg 85%
    22:00 +4°C° 0.7 mm 12 mps 734 mmHg 84%
    23:00 +4°C° 0.7 mm 12 mps 736 mmHg 83%

    25 September, Tuesday

    Time Temperature Precipitation Wind Pressure Humidity
    00:00 +4°C° 0.2 mm 11 mps 737 mmHg 82%
    01:00 +5°C° 0.2 mm 10 mps 739 mmHg 81%
    02:00 +5°C° 0.2 mm 10 mps 740 mmHg 80%
    03:00 +5°C° 0 mm 9 mps 741 mmHg 78%
    04:00 +3°C° 0 mm 9 mps 742 mmHg 77%
    05:00 +4°C° 0 mm 8 mps 744 mmHg 75%
    06:00 +4°C° 0 mm 8 mps 744 mmHg 72%
    07:00 +5°C° 0 mm 8 mps 745 mmHg 69%
    08:00 +5°C° 0 mm 9 mps 746 mmHg 66%
    09:00 +6°C° 0 mm 9 mps 747 mmHg 61%
    10:00 +7°C° 0 mm 9 mps 747 mmHg 56%
    11:00 +9°C° 0 mm 10 mps 748 mmHg 51%
    12:00 +9°C° 0 mm 10 mps 748 mmHg 50%
    13:00 +11°C° 0 mm 9 mps 748 mmHg 49%
    14:00 +11°C° 0 mm 9 mps 748 mmHg 47%
    15:00 +11°C° 0 mm 7 mps 747 mmHg 51%
    16:00 +10°C° 0 mm 6 mps 746 mmHg 55%
    17:00 +10°C° 0 mm 5 mps 746 mmHg 59%
    18:00 +9°C° 1.4 mm 5 mps 745 mmHg 69%
    19:00 +7°C° 1.4 mm 5 mps 745 mmHg 80%
    20:00 +6°C° 1.4 mm 5 mps 744 mmHg 90%
    21:00 +6°C° 0.7 mm 4 mps 744 mmHg 91%
    22:00 +6°C° 0.7 mm 4 mps 744 mmHg 92%
    23:00 +7°C° 0.7 mm 3 mps 744 mmHg 92%

    26 September, Wednesday

    Time Temperature Precipitation Wind Pressure Humidity
    00:00 +6°C° 0.4 mm 4 mps 745 mmHg 93%
    01:00 +6°C° 0.4 mm 4 mps 745 mmHg 93%
    02:00 +6°C° 0.4 mm 5 mps 746 mmHg 93%
    03:00 +5°C° 0 mm 4 mps 747 mmHg 93%
    04:00 +5°C° 0 mm 4 mps 748 mmHg 94%
    05:00 +4°C° 0 mm 3 mps 748 mmHg 94%
    06:00 +5°C° 0 mm 3 mps 749 mmHg 93%
    07:00 +5°C° 0 mm 3 mps 750 mmHg 92%
    08:00 +5°C° 0 mm 3 mps 751 mmHg 91%
    09:00 +7°C° 0 mm 4 mps 751 mmHg 84%
    10:00 +8°C° 0 mm 4 mps 752 mmHg 76%
    11:00 +10°C° 0 mm 5 mps 752 mmHg 69%
    12:00 +10°C° 0.1 mm 5 mps 752 mmHg 67%
    13:00 +12°C° 0.1 mm 5 mps 752 mmHg 66%
    14:00 +12°C° 0.1 mm 5 mps 752 mmHg 65%
    15:00 +12°C° 0.1 mm 5 mps 753 mmHg 67%
    16:00 +11°C° 0.1 mm 4 mps 753 mmHg 69%
    17:00 +11°C° 0.1 mm 4 mps 753 mmHg 71%
    18:00 +10°C° 0 mm 3 mps 753 mmHg 76%
    19:00 +8°C° 0 mm 3 mps 753 mmHg 81%
    20:00 +7°C° 0 mm 2 mps 754 mmHg 86%
    21:00 +7°C° 0 mm 2 mps 754 mmHg 87%
    22:00 +6°C° 0 mm 2 mps 754 mmHg 89%
    23:00 +6°C° 0 mm 2 mps 754 mmHg 90%
    Show more